Regional Weather Roundup
Issued by NWS

Home | Current Version | Previous Version | Graphics & Text | Print | Product List | Glossary On
Versions: 1 2 3 4 5 6 7 8 9 10 11 12 13 14 15 16 17 18 19 20 21 22 23 24 25 26 27 28 29 30 31 32 33 34 35 36 37 38 39 40 41 42 43 44 45 46 47 48 49 50
000
ASUS45 KSLC 250410
RWRUT

UTAH REGIONAL WEATHER ROUNDUP
NATIONAL WEATHER SERVICE SALT LAKE CITY UT
1000 PM MDT WED MAY 24 2017

UTZ001>011-023>025-250500-

NORTHERN UTAH

CITY           SKY/WX    TMP DP  RH WIND       PRES   REMARKS
BRIGHAM CITY   MOCLDY    63  48  58 E7G22     29.57R
HILL AFB       CLOUDY    68  43  39 S10       29.57R
LOGAN          MOCLDY    63  43  48 N8        29.58R
OGDEN          MOCLDY    71  41  33 SW9       29.55R
SALT LAKE CITY CLOUDY    75  39  27 S15       29.51F
TOOELE VALLEY  CLOUDY    70  41  35 S8        29.53F
WENDOVER       MOCLDY    74  39  28 N13       29.52R
HEBER CITY     RAIN      61  46  59 E6        29.69R
WEST JORDAN    CLOUDY    71  47  43 S8        29.59F

$$

UTZ011>015-024>027-250500-

CENTRAL/NORTHEAST UTAH

CITY           SKY/WX    TMP DP  RH WIND       PRES   REMARKS
PROVO AIRPORT  CLOUDY    69  47  45 S10       29.61F
MOAB/CANYONLAN MOCLDY    78  27  15 W8        29.54R
DELTA          CLOUDY    68  36  30 E8        29.63F
PRICE          CLOUDY    68  35  29 W25G37    29.71R
ROOSEVELT      PTCLDY    70  36  28 W29G49    29.65R
VERNAL         CLOUDY    69  33  26 SW5       29.57R

$$

UTZ013>016-019>022-027-250500-

SOUTHERN UTAH

CITY           SKY/WX    TMP DP  RH WIND       PRES   REMARKS
BRYCE CANYON   PTCLDY    62  20  19 SW12      29.89R
CEDAR CITY     MOCLDY    70  21  15 W9        29.75R
MILFORD        MOCLDY    76  26  15 W18G31    29.67R
ST GEORGE      CLOUDY    88  22   9 SW15      29.55R
HANKSVILLE     CLEAR     82  23  11 SW14G28   29.60R
BLANDING       CLEAR     71  21  15 W8        29.80S

$$

REGIONAL REPORTS     COLORADO/ARIZONA

CITY           SKY/WX    TMP DP  RH WIND       PRES   REMARKS
CRAIG, CO      CLOUDY    53  38  56 S3        29.65S
GRAND JUNCTION MOCLDY    71  32  23 E6        29.59S
RIFLE, CO      PTCLDY    73  32  22 W7        29.65F
MONTROSE, CO   CLOUDY    68  29  23 S5        29.71S
CORTEZ, CO     CLEAR     56  36  47 E3        29.76S
COLORADO CITY    N/A     81  25  12 SW16G28   29.75S
PAGE, AZ       PTCLDY    84  23  10 SW10G18   29.65R
GRAND CANYON   MOCLDY    65  25  22 SW7       29.91S
KINGMAN, AZ    PTCLDY    81  20  10 S13G25    29.68F
FLAGSTAFF, AZ  PTCLDY    67  20  16 SW17G26   29.96R

$$

REGIONAL REPORTS    NEVADA/IDAHO/WYOMING

CITY           SKY/WX    TMP DP  RH WIND       PRES   REMARKS
LAS VEGAS, NV  PTCLDY    92  15   6 SW15G25   29.53R
ELY, NY        CLOUDY    54  39  57 S9        29.73S
ELKO, NV       MOCLDY    66  34  30 N7G22     29.62R
POCATELLO, ID  CLOUDY    60  25  26 SW16      29.60S
BURLEY, ID     MOCLDY    60  23  24 W13       29.61R
FORT BRIDGER,  MOCLDY    54  42  63 W14G23    29.72F
EVANSTON, WY   CLOUDY    50  45  83 SW8       29.71F
ROCK SPRINGS,  CLOUDY    61  37  41 W10       29.68R
KEMMERER, WY   LGT RAIN  48  43  81 W17G35    29.73S

$$



USA.gov is the U.S. government's official web portal to all federal, state and local government web resources and services.